CFG080 EDDF-KLAX

Flight info

Callsign CFG080
Flight time N/A
Altitude 24000
Route MARUN3W MARUN Y152 ARPEG/N0473F340 Z850 ABILU DCT ATPAQ DCT OMIMA DCT ATNAK DCT GUNPA/M083F340 DCT 65N010W 68N020W 6930N03000W 70N040W/M083F360 70N060W DCT ADSAM/N0486F360 DCT 69N070W 67N080W 6330N09000W/N0471F380 DCT YEK DCT 56N100W DCT DURUR/N0484F400 DCT KATEN DCT GGW DCT BIL DCT KU84Q DCT TCH DCT WINEN/N0471F410 Q73 EEVUN/N0472F400 Q73 HAKMN ANJLL4
Aircraft A339/H-SADE1E2E3GHIJ3J5M1P2RWXY/LB2D1

Departure

Time N/A
Airport Frankfurt Main Airport (EDDF)

Arrival

Time 2026-04-24 22:30
Airport Los Angeles International Airport (KLAX)
Time Latitude Longitude Altitude Speed Heading
2026-04-24 14:53 70.22076 -45.36632 34629 ft 397 kts 270°
2026-04-24 14:54 70.22285 -45.44878 34754 ft 397 kts 270°
2026-04-24 14:54 70.22484 -45.52920 34881 ft 398 kts 270°
2026-04-24 14:54 70.22684 -45.61086 35011 ft 398 kts 270°
2026-04-24 14:54 70.22881 -45.69273 35139 ft 398 kts 270°
2026-04-24 14:55 70.23010 -45.74685 35225 ft 398 kts 270°
2026-04-24 14:55 70.23265 -45.85616 35387 ft 399 kts 270°
2026-04-24 14:55 70.23452 -45.93795 35517 ft 399 kts 270°
2026-04-24 14:55 70.23635 -46.01974 35641 ft 399 kts 270°
2026-04-24 14:56 70.23814 -46.10153 35760 ft 399 kts 270°
2026-04-24 14:56 70.23990 -46.18355 35882 ft 399 kts 270°
2026-04-24 14:56 70.24160 -46.26450 35997 ft 400 kts 270°
2026-04-24 14:56 70.24329 -46.34656 36120 ft 400 kts 270°
2026-04-24 14:57 70.24495 -46.42904 36192 ft 401 kts 270°
2026-04-24 14:57 70.24815 -46.59423 36221 ft 403 kts 270°
2026-04-24 14:58 70.25123 -46.75913 36210 ft 400 kts 269°
2026-04-24 14:58 70.25410 -46.92380 36210 ft 401 kts 269°
2026-04-24 14:59 70.25682 -47.08798 36210 ft 401 kts 269°
2026-04-24 14:59 70.25940 -47.25162 36216 ft 401 kts 269°
2026-04-24 15:00 70.26183 -47.41642 36206 ft 401 kts 268°
2026-04-24 15:00 70.26411 -47.58108 36232 ft 401 kts 268°
2026-04-24 15:01 70.26626 -47.74606 36236 ft 401 kts 268°
2026-04-24 15:01 70.26824 -47.91081 36229 ft 401 kts 268°
2026-04-24 15:02 70.27009 -48.07582 36227 ft 401 kts 267°
2026-04-24 15:02 70.27178 -48.24099 36230 ft 401 kts 267°
2026-04-24 15:03 70.27330 -48.40567 36231 ft 402 kts 266°
2026-04-24 15:03 70.27472 -48.57115 36241 ft 402 kts 266°
2026-04-24 15:04 70.27600 -48.73657 36244 ft 402 kts 266°
2026-04-24 15:04 70.27710 -48.90192 36245 ft 402 kts 266°
2026-04-24 15:05 70.27803 -49.06743 36246 ft 402 kts 266°
2026-04-24 15:05 70.27881 -49.23188 36249 ft 402 kts 266°
2026-04-24 15:06 70.27944 -49.39745 36312 ft 402 kts 266°
2026-04-24 15:06 70.27994 -49.56268 36252 ft 399 kts 265°
2026-04-24 15:07 70.28023 -49.72715 36263 ft 400 kts 265°
2026-04-24 15:07 70.28040 -49.89171 36263 ft 399 kts 265°
2026-04-24 15:08 70.28042 -50.05635 36280 ft 399 kts 265°
2026-04-24 15:08 70.28028 -50.21993 36282 ft 399 kts 265°
2026-04-24 15:09 70.27999 -50.38453 36307 ft 399 kts 264°
2026-04-24 15:09 70.27954 -50.54919 36303 ft 399 kts 264°
2026-04-24 15:10 70.27896 -50.71352 36295 ft 399 kts 264°
2026-04-24 15:10 70.27820 -50.87772 36312 ft 398 kts 263°
2026-04-24 15:11 70.27729 -51.04089 36315 ft 395 kts 263°
2026-04-24 15:11 70.27626 -51.20268 36316 ft 397 kts 263°
2026-04-24 15:12 70.27510 -51.36596 36286 ft 396 kts 263°
2026-04-24 15:12 70.27303 -51.61185 36297 ft 399 kts 263°
2026-04-24 15:13 70.27152 -51.77622 36301 ft 398 kts 263°
2026-04-24 15:13 70.26986 -51.94007 36303 ft 400 kts 262°
2026-04-24 15:14 70.26800 -52.10451 36287 ft 398 kts 262°
2026-04-24 15:14 70.26604 -52.26882 36294 ft 400 kts 261°
2026-04-24 15:15 70.26394 -52.43121 36295 ft 397 kts 261°
2026-04-24 15:15 70.26161 -52.59509 36294 ft 399 kts 261°
2026-04-24 15:16 70.25920 -52.75871 36295 ft 397 kts 261°
2026-04-24 15:16 70.25663 -52.92212 36295 ft 397 kts 261°
2026-04-24 15:17 70.25390 -53.08529 36295 ft 398 kts 261°
2026-04-24 15:17 70.25105 -53.24888 36305 ft 399 kts 261°
2026-04-24 15:18 70.24806 -53.41291 36318 ft 400 kts 261°
2026-04-24 15:18 70.24490 -53.57613 36398 ft 400 kts 260°
2026-04-24 15:19 70.24156 -53.74092 36331 ft 401 kts 259°
2026-04-24 15:19 70.23807 -53.90536 36322 ft 401 kts 259°
2026-04-24 15:20 70.23445 -54.06837 36327 ft 400 kts 259°
2026-04-24 15:20 70.23067 -54.23244 36348 ft 401 kts 259°
2026-04-24 15:21 70.22670 -54.39688 36358 ft 401 kts 259°
2026-04-24 15:21 70.22329 -54.53342 36358 ft 402 kts 259°
2026-04-24 15:22 70.21908 -54.69784 36357 ft 402 kts 258°
2026-04-24 15:23 70.21244 -54.94508 36375 ft 403 kts 258°
2026-04-24 15:23 70.20545 -55.19243 36378 ft 403 kts 258°
2026-04-24 15:25 70.19305 -55.60337 36396 ft 403 kts 258°
2026-04-24 15:26 70.17970 -56.01428 36407 ft 402 kts 257°
2026-04-24 15:27 70.16245 -56.50707 36411 ft 405 kts 257°
2026-04-24 15:29 70.14378 -57.00057 36442 ft 405 kts 256°
2026-04-24 15:31 70.12027 -57.57532 36471 ft 405 kts 256°
2026-04-24 15:33 70.09102 -58.23353 36481 ft 407 kts 255°
2026-04-24 15:34 70.07149 -58.64436 36512 ft 408 kts 255°
2026-04-24 15:35 70.05097 -59.05562 36601 ft 408 kts 254°
2026-04-24 15:36 70.04245 -59.22127 36541 ft 413 kts 255°
2026-04-24 15:36 70.02955 -59.46984 36541 ft 413 kts 254°
2026-04-24 15:37 70.02071 -59.63623 36546 ft 415 kts 254°
2026-04-24 15:37 70.01166 -59.80329 36550 ft 416 kts 254°
2026-04-24 15:38 70.00270 -59.97023 36551 ft 417 kts 256°
2026-04-24 15:38 69.99726 -60.13961 36559 ft 419 kts 258°
2026-04-24 15:39 69.99445 -60.31009 36561 ft 421 kts 260°
2026-04-24 15:39 69.99186 -60.48033 36579 ft 427 kts 261°
2026-04-24 15:40 69.98872 -60.65478 36586 ft 431 kts 261°
2026-04-24 15:40 69.98534 -60.82952 36587 ft 430 kts 260°
2026-04-24 15:41 69.98175 -61.00422 36583 ft 430 kts 260°
2026-04-24 15:41 69.97799 -61.17868 36594 ft 430 kts 260°
2026-04-24 15:42 69.97408 -61.35204 36593 ft 430 kts 260°
2026-04-24 15:42 69.96998 -61.52643 36589 ft 431 kts 260°
2026-04-24 15:43 69.96566 -61.70131 36610 ft 436 kts 261°
2026-04-24 15:43 69.96113 -61.87824 36612 ft 438 kts 261°
2026-04-24 15:44 69.95649 -62.05401 36619 ft 437 kts 260°
2026-04-24 15:44 69.95163 -62.23072 36625 ft 437 kts 260°
2026-04-24 15:45 69.94659 -62.40737 36621 ft 438 kts 260°
2026-04-24 15:45 69.94138 -62.58403 36613 ft 437 kts 260°
2026-04-24 15:46 69.93599 -62.76057 36625 ft 437 kts 260°
2026-04-24 15:46 69.93040 -62.93668 36616 ft 439 kts 260°
2026-04-24 15:47 69.92462 -63.11373 36630 ft 439 kts 259°
2026-04-24 15:47 69.91352 -63.28631 36630 ft 434 kts 251°
2026-04-24 15:48 69.89474 -63.45286 36624 ft 433 kts 249°
2026-04-24 15:48 69.87581 -63.61935 36633 ft 434 kts 249°
2026-04-24 15:49 69.85681 -63.78602 36647 ft 434 kts 249°
2026-04-24 15:49 69.83771 -63.95122 36644 ft 435 kts 249°
2026-04-24 15:50 69.81828 -64.11742 36649 ft 435 kts 248°
2026-04-24 15:50 69.79872 -64.28344 36651 ft 437 kts 249°
2026-04-24 15:51 69.77895 -64.44958 36656 ft 437 kts 249°
2026-04-24 15:51 69.75899 -64.61544 36655 ft 437 kts 249°
2026-04-24 15:52 69.73886 -64.78083 36664 ft 436 kts 249°
2026-04-24 15:52 69.71873 -64.94484 36665 ft 436 kts 249°
2026-04-24 15:53 69.69830 -65.10974 36665 ft 436 kts 248°
2026-04-24 15:53 69.67775 -65.27397 36665 ft 436 kts 248°
2026-04-24 15:54 69.65705 -65.43793 36670 ft 436 kts 248°
2026-04-24 15:54 69.63630 -65.60070 36704 ft 436 kts 248°
2026-04-24 15:55 69.61529 -65.76404 36675 ft 436 kts 248°
2026-04-24 15:55 69.59415 -65.92688 36672 ft 436 kts 248°
2026-04-24 15:56 69.57284 -66.08960 36671 ft 436 kts 248°
2026-04-24 15:56 69.55139 -66.25185 36669 ft 435 kts 248°
2026-04-24 15:57 69.52981 -66.41361 36668 ft 435 kts 248°
2026-04-24 15:57 69.50823 -66.57396 36668 ft 435 kts 248°
2026-04-24 15:58 69.48635 -66.73517 36672 ft 435 kts 247°
2026-04-24 15:58 69.46432 -66.89595 36674 ft 435 kts 247°
2026-04-24 15:59 69.44211 -67.05665 36679 ft 436 kts 247°
2026-04-24 15:59 69.41975 -67.21708 36673 ft 436 kts 247°
2026-04-24 16:00 69.39740 -67.37600 36693 ft 435 kts 247°
2026-04-24 16:00 69.37480 -67.53540 36694 ft 435 kts 247°
2026-04-24 16:01 69.35203 -67.69458 36688 ft 435 kts 247°
2026-04-24 16:01 69.32909 -67.85359 36690 ft 435 kts 247°
2026-04-24 16:02 69.30603 -68.01208 36691 ft 436 kts 246°
2026-04-24 16:02 69.28280 -68.17041 36677 ft 435 kts 246°
2026-04-24 16:03 69.25963 -68.32708 36675 ft 435 kts 246°
2026-04-24 16:03 69.23613 -68.48464 36674 ft 435 kts 246°
2026-04-24 16:04 69.21247 -68.64188 36654 ft 435 kts 246°
2026-04-24 16:04 69.18877 -68.79822 36669 ft 434 kts 246°
2026-04-24 16:05 69.15297 -69.03199 36670 ft 434 kts 246°
2026-04-24 16:06 69.11696 -69.26424 36670 ft 434 kts 246°
2026-04-24 16:07 69.08049 -69.49661 36690 ft 434 kts 246°
2026-04-24 16:07 69.04361 -69.72884 36692 ft 435 kts 246°
2026-04-24 16:08 69.00680 -69.95878 36711 ft 433 kts 246°
2026-04-24 16:09 68.97379 -70.16216 36722 ft 432 kts 246°
2026-04-24 16:09 68.95002 -70.31608 36718 ft 432 kts 247°
2026-04-24 16:11 68.88969 -70.69845 36723 ft 432 kts 246°
2026-04-24 16:11 68.86519 -70.85046 36722 ft 432 kts 246°
2026-04-24 16:12 68.82824 -71.07728 36724 ft 433 kts 246°
2026-04-24 16:13 68.79097 -71.30329 36735 ft 429 kts 246°
2026-04-24 16:14 68.74099 -71.60271 36739 ft 429 kts 246°
2026-04-24 16:14 68.70319 -71.82610 36741 ft 429 kts 246°
2026-04-24 16:15 68.66519 -72.04825 36740 ft 429 kts 245°
2026-04-24 16:16 68.62674 -72.27050 36742 ft 429 kts 245°
2026-04-24 16:17 68.56238 -72.63717 36749 ft 427 kts 245°
2026-04-24 16:18 68.51038 -72.92865 36747 ft 427 kts 245°
2026-04-24 16:19 68.47120 -73.14553 36745 ft 426 kts 245°
2026-04-24 16:20 68.43158 -73.36256 36776 ft 427 kts 245°
2026-04-24 16:20 68.39169 -73.57874 36755 ft 426 kts 245°
2026-04-24 16:21 68.35181 -73.79262 36751 ft 423 kts 245°
2026-04-24 16:22 68.32525 -73.93388 36752 ft 423 kts 245°
2026-04-24 16:22 68.28497 -74.14629 36758 ft 423 kts 245°
2026-04-24 16:23 68.25795 -74.28751 36758 ft 423 kts 245°
2026-04-24 16:24 68.21724 -74.49855 36759 ft 423 kts 244°
2026-04-24 16:24 68.18994 -74.63885 36771 ft 423 kts 244°
2026-04-24 16:25 68.16270 -74.77796 36742 ft 423 kts 244°
2026-04-24 16:25 68.13538 -74.91655 36774 ft 418 kts 245°
2026-04-24 16:26 68.09421 -75.12365 36779 ft 419 kts 244°
2026-04-24 16:27 68.05295 -75.32917 36781 ft 419 kts 244°
2026-04-24 16:27 68.02519 -75.46634 36787 ft 419 kts 244°
2026-04-24 16:28 67.99732 -75.60315 36788 ft 419 kts 244°
2026-04-24 16:28 67.95524 -75.80804 36796 ft 420 kts 244°
2026-04-24 16:29 67.92710 -75.94399 36729 ft 419 kts 244°
2026-04-24 16:30 67.87134 -76.21072 36803 ft 414 kts 244°
2026-04-24 16:30 67.84325 -76.34393 36799 ft 414 kts 244°
2026-04-24 16:31 67.81503 -76.47688 36807 ft 414 kts 244°
2026-04-24 16:31 67.78669 -76.60951 36807 ft 414 kts 244°
2026-04-24 16:32 67.75828 -76.74170 36809 ft 414 kts 244°
2026-04-24 16:32 67.72992 -76.87285 36826 ft 414 kts 244°
2026-04-24 16:33 67.70125 -77.00459 36822 ft 414 kts 244°
2026-04-24 16:33 67.67255 -77.13560 36792 ft 410 kts 244°
2026-04-24 16:34 67.64416 -77.26441 36817 ft 407 kts 244°
2026-04-24 16:34 67.61567 -77.39315 36815 ft 408 kts 244°
2026-04-24 16:35 67.58703 -77.52164 36819 ft 408 kts 244°
2026-04-24 16:35 67.55847 -77.64898 36817 ft 408 kts 244°
2026-04-24 16:36 67.52965 -77.77675 36815 ft 408 kts 243°
2026-04-24 16:36 67.50070 -77.90432 36818 ft 408 kts 243°
2026-04-24 16:37 67.47167 -78.03154 36827 ft 408 kts 243°
2026-04-24 16:37 67.44251 -78.15851 36827 ft 408 kts 243°
2026-04-24 16:38 67.41331 -78.28495 36824 ft 407 kts 243°
2026-04-24 16:38 67.38403 -78.41100 36824 ft 407 kts 243°
2026-04-24 16:39 67.35481 -78.53604 36824 ft 407 kts 243°
2026-04-24 16:39 67.32534 -78.66149 36826 ft 407 kts 243°
2026-04-24 16:40 67.29577 -78.78657 36825 ft 407 kts 243°
2026-04-24 16:40 67.26607 -78.91152 36828 ft 407 kts 243°
2026-04-24 16:41 67.23626 -79.03619 36851 ft 407 kts 242°
2026-04-24 16:41 67.20658 -79.15966 36839 ft 407 kts 242°
2026-04-24 16:42 67.17668 -79.28322 36778 ft 403 kts 243°
2026-04-24 16:42 67.14720 -79.40416 36830 ft 397 kts 243°
2026-04-24 16:43 67.11774 -79.52494 36833 ft 398 kts 243°
2026-04-24 16:43 67.08816 -79.64539 36831 ft 398 kts 243°
2026-04-24 16:44 67.05874 -79.76475 36836 ft 398 kts 243°
2026-04-24 16:44 67.02904 -79.88472 36835 ft 398 kts 243°
2026-04-24 16:45 66.99894 -80.00420 36838 ft 399 kts 242°
2026-04-24 16:45 66.96653 -80.12003 36839 ft 401 kts 239°
2026-04-24 16:46 66.93420 -80.23478 36840 ft 400 kts 240°
2026-04-24 16:46 66.90204 -80.34995 36833 ft 396 kts 240°
2026-04-24 16:47 66.86996 -80.46455 36831 ft 397 kts 240°
2026-04-24 16:47 66.83787 -80.57847 36852 ft 396 kts 240°
2026-04-24 16:48 66.80557 -80.69232 36852 ft 397 kts 240°
2026-04-24 16:48 66.77338 -80.80497 36833 ft 397 kts 240°
2026-04-24 16:49 66.74083 -80.91822 36830 ft 398 kts 240°
2026-04-24 16:49 66.70819 -81.03119 36848 ft 398 kts 240°
2026-04-24 16:50 66.67548 -81.14387 36863 ft 398 kts 239°
2026-04-24 16:50 66.64266 -81.25624 36817 ft 396 kts 239°
2026-04-24 16:51 66.61005 -81.36739 36847 ft 394 kts 239°
2026-04-24 16:51 66.57757 -81.47765 36845 ft 394 kts 239°
2026-04-24 16:52 66.54479 -81.58832 36846 ft 395 kts 239°
2026-04-24 16:52 66.51187 -81.69884 36845 ft 395 kts 239°
2026-04-24 16:53 66.47890 -81.80902 36846 ft 395 kts 239°
2026-04-24 16:53 66.44605 -81.91823 36849 ft 395 kts 239°
2026-04-24 16:54 66.41291 -82.02786 36849 ft 395 kts 239°
2026-04-24 16:54 66.37969 -82.13719 36864 ft 395 kts 238°
2026-04-24 16:55 66.34650 -82.24584 36852 ft 393 kts 238°
2026-04-24 16:55 66.31328 -82.35410 36849 ft 394 kts 238°
2026-04-24 16:56 66.27995 -82.46222 36851 ft 394 kts 238°
2026-04-24 16:56 66.24654 -82.57005 36852 ft 394 kts 238°
2026-04-24 16:57 66.21305 -82.67762 36852 ft 394 kts 238°
2026-04-24 16:57 66.17971 -82.78418 36854 ft 394 kts 238°
2026-04-24 16:58 66.14604 -82.89129 36855 ft 394 kts 238°
2026-04-24 16:58 66.11229 -82.99813 36855 ft 394 kts 238°
2026-04-24 16:59 66.08419 -83.08666 36836 ft 394 kts 238°
2026-04-24 17:00 66.03334 -83.24605 36855 ft 394 kts 237°
2026-04-24 17:00 65.98227 -83.40494 36861 ft 395 kts 237°
2026-04-24 17:01 65.93105 -83.56315 36857 ft 395 kts 237°
2026-04-24 17:02 65.87985 -83.72019 36858 ft 395 kts 237°
2026-04-24 17:02 65.84547 -83.82502 36861 ft 395 kts 237°
2026-04-24 17:03 65.79367 -83.98199 36838 ft 395 kts 237°
2026-04-24 17:04 65.75905 -84.08636 36850 ft 396 kts 237°
2026-04-24 17:04 65.70711 -84.24194 36865 ft 396 kts 237°
2026-04-24 17:05 65.67226 -84.34569 36863 ft 396 kts 236°
2026-04-24 17:06 65.61981 -84.50093 36863 ft 396 kts 236°
2026-04-24 17:06 65.56743 -84.65487 36860 ft 396 kts 236°
2026-04-24 17:07 65.53230 -84.75754 36848 ft 396 kts 236°
2026-04-24 17:08 65.46186 -84.96196 36836 ft 397 kts 236°
2026-04-24 17:08 65.42646 -85.06403 36850 ft 397 kts 235°
2026-04-24 17:09 65.35565 -85.26666 36845 ft 397 kts 235°
2026-04-24 17:10 65.28439 -85.46872 36840 ft 397 kts 235°
2026-04-24 17:12 65.14127 -85.86899 36837 ft 398 kts 234°
2026-04-24 18:54 55.91972 -100.08369 37806 ft 451 kts 204°
2026-04-24 18:55 55.83922 -100.16943 37800 ft 451 kts 204°
2026-04-24 18:56 55.78478 -100.22669 37802 ft 457 kts 204°
2026-04-24 18:56 55.73002 -100.28407 37798 ft 456 kts 204°
2026-04-24 18:57 55.67527 -100.34123 37796 ft 456 kts 204°
2026-04-24 18:57 55.62074 -100.39790 37780 ft 456 kts 204°
2026-04-24 18:58 55.56594 -100.45465 37779 ft 456 kts 204°
2026-04-24 18:58 55.51108 -100.51129 37776 ft 456 kts 204°
2026-04-24 18:59 55.45618 -100.56776 37766 ft 456 kts 204°
2026-04-24 18:59 55.40135 -100.62400 37755 ft 456 kts 204°
2026-04-24 19:00 55.34679 -100.67976 37746 ft 456 kts 204°
2026-04-24 19:00 55.29176 -100.73583 37740 ft 457 kts 204°
2026-04-24 19:01 55.23658 -100.79187 37739 ft 457 kts 204°
2026-04-24 19:01 55.18156 -100.84757 37724 ft 457 kts 204°
2026-04-24 19:02 55.13578 -100.89378 37722 ft 456 kts 204°
2026-04-24 19:02 55.07175 -100.95820 37714 ft 456 kts 204°
2026-04-24 19:03 55.01683 -101.01324 37734 ft 459 kts 204°
2026-04-24 19:03 54.96117 -101.06881 37701 ft 461 kts 204°
2026-04-24 19:04 54.90555 -101.12427 37703 ft 460 kts 204°
2026-04-24 19:04 54.84986 -101.17958 37692 ft 461 kts 204°
2026-04-24 19:05 54.79412 -101.23475 37690 ft 460 kts 204°
2026-04-24 19:05 54.73844 -101.28969 37672 ft 460 kts 204°
2026-04-24 19:06 54.68271 -101.34448 37629 ft 461 kts 204°
2026-04-24 19:06 54.62719 -101.39891 37606 ft 462 kts 204°
2026-04-24 19:07 54.57118 -101.45363 37607 ft 463 kts 204°
2026-04-24 19:07 54.52455 -101.49907 37613 ft 463 kts 204°
2026-04-24 19:08 54.45924 -101.56251 37622 ft 464 kts 204°
2026-04-24 19:08 54.40288 -101.61705 37625 ft 465 kts 204°
2026-04-24 19:09 54.34651 -101.67145 37633 ft 465 kts 204°
2026-04-24 19:09 54.29004 -101.72577 37638 ft 465 kts 204°
2026-04-24 19:10 54.23349 -101.77999 37604 ft 467 kts 205°
2026-04-24 19:10 54.17668 -101.83428 37614 ft 468 kts 205°
2026-04-24 19:11 54.11971 -101.88854 37616 ft 469 kts 205°
2026-04-24 19:11 54.06302 -101.94239 37609 ft 470 kts 205°
2026-04-24 19:12 54.00589 -101.99648 37607 ft 470 kts 205°
2026-04-24 19:12 53.94871 -102.05044 37609 ft 470 kts 205°
2026-04-24 19:13 53.90119 -102.09516 37596 ft 470 kts 205°
2026-04-24 19:13 53.83404 -102.15813 37600 ft 474 kts 205°
2026-04-24 19:14 53.77606 -102.21232 37585 ft 477 kts 205°
2026-04-24 19:14 53.71834 -102.26612 37584 ft 476 kts 205°
2026-04-24 19:15 53.66034 -102.32001 37585 ft 476 kts 205°
2026-04-24 19:15 53.60215 -102.37388 37587 ft 476 kts 205°
2026-04-24 19:16 53.51502 -102.45424 37579 ft 475 kts 205°
2026-04-24 19:16 53.45746 -102.50713 37565 ft 476 kts 205°
2026-04-24 19:17 53.39922 -102.56045 37563 ft 476 kts 205°
2026-04-24 19:17 53.34092 -102.61368 37579 ft 477 kts 205°
2026-04-24 19:18 53.28265 -102.66670 37579 ft 476 kts 205°
2026-04-24 19:18 53.22443 -102.71953 37589 ft 476 kts 205°
2026-04-24 19:19 53.16620 -102.77219 37577 ft 476 kts 205°
2026-04-24 19:19 53.10798 -102.82469 37579 ft 476 kts 205°
2026-04-24 19:20 53.04954 -102.87721 37577 ft 477 kts 205°
2026-04-24 19:20 52.99154 -102.92919 37583 ft 476 kts 205°
2026-04-24 19:21 52.93321 -102.98129 37581 ft 476 kts 205°
2026-04-24 19:21 52.87476 -103.03333 37577 ft 476 kts 205°
2026-04-24 19:22 52.81636 -103.08517 37582 ft 476 kts 205°
2026-04-24 19:22 52.75804 -103.13679 37582 ft 476 kts 205°
2026-04-24 19:23 52.69954 -103.18839 37566 ft 476 kts 206°
2026-04-24 19:23 52.64105 -103.23985 37587 ft 477 kts 206°
2026-04-24 19:24 52.58239 -103.29130 37595 ft 478 kts 206°
2026-04-24 19:24 52.52415 -103.34222 37585 ft 478 kts 206°
2026-04-24 19:25 52.46527 -103.39354 37592 ft 478 kts 206°
2026-04-24 19:25 52.40654 -103.44457 37606 ft 477 kts 206°
2026-04-24 19:26 52.35776 -103.48685 37592 ft 477 kts 206°
2026-04-24 19:26 52.29880 -103.53779 37595 ft 479 kts 206°
2026-04-24 19:27 52.23982 -103.58862 37613 ft 480 kts 206°
2026-04-24 19:27 52.18115 -103.63900 37625 ft 479 kts 206°
2026-04-24 19:28 52.12207 -103.68961 37641 ft 479 kts 206°
2026-04-24 19:28 52.06285 -103.74017 37632 ft 479 kts 206°
2026-04-24 19:29 51.97446 -103.81535 37654 ft 479 kts 206°
2026-04-24 19:30 51.91530 -103.86550 37648 ft 478 kts 206°
2026-04-24 19:30 51.85636 -103.91529 37650 ft 479 kts 206°
2026-04-24 19:31 51.79754 -103.96481 37661 ft 479 kts 206°
2026-04-24 19:31 51.73841 -104.01449 37662 ft 479 kts 206°
2026-04-24 19:32 51.67925 -104.06404 37679 ft 478 kts 206°
2026-04-24 19:32 51.62033 -104.11320 37672 ft 475 kts 206°
2026-04-24 19:33 51.56166 -104.16204 37671 ft 475 kts 206°
2026-04-24 19:33 51.50294 -104.21082 37686 ft 475 kts 206°
2026-04-24 19:34 51.44413 -104.25946 37689 ft 475 kts 206°
2026-04-24 19:34 51.38534 -104.30801 37686 ft 474 kts 206°
2026-04-24 19:35 51.32684 -104.35619 37686 ft 472 kts 206°
2026-04-24 19:35 51.26836 -104.40412 37692 ft 472 kts 206°
2026-04-24 19:36 51.21018 -104.45166 37696 ft 473 kts 206°
2026-04-24 19:36 51.15148 -104.49957 37699 ft 474 kts 206°
2026-04-24 19:37 51.09297 -104.54717 37706 ft 470 kts 206°
2026-04-24 19:37 51.03462 -104.59450 37717 ft 472 kts 206°
2026-04-24 19:38 50.97624 -104.64174 37719 ft 470 kts 206°
2026-04-24 19:38 50.91790 -104.68874 37728 ft 471 kts 206°
2026-04-24 19:39 50.85957 -104.73565 37728 ft 470 kts 206°
2026-04-24 19:39 50.80095 -104.78273 37737 ft 474 kts 206°
2026-04-24 19:40 50.74250 -104.82959 37737 ft 473 kts 206°
2026-04-24 19:40 50.68352 -104.87668 37738 ft 474 kts 206°
2026-04-24 19:41 50.62355 -104.91929 37723 ft 473 kts 203°
2026-04-24 19:41 50.56347 -104.96076 37716 ft 469 kts 204°
2026-04-24 19:42 50.50370 -105.00210 37777 ft 470 kts 204°
2026-04-24 19:42 50.44383 -105.04313 37773 ft 474 kts 204°
2026-04-24 19:43 50.38321 -105.08459 37766 ft 475 kts 204°
2026-04-24 19:43 50.32262 -105.12592 37771 ft 472 kts 204°
2026-04-24 19:44 50.26244 -105.16684 37763 ft 470 kts 204°
2026-04-24 19:44 50.20228 -105.20762 37765 ft 472 kts 204°
2026-04-24 19:45 50.14249 -105.24804 37774 ft 472 kts 204°
2026-04-24 19:45 50.08209 -105.28866 37789 ft 474 kts 204°
2026-04-24 19:46 50.02148 -105.32944 37807 ft 475 kts 204°
2026-04-24 19:46 49.96069 -105.37033 37820 ft 476 kts 204°
2026-04-24 19:47 49.89990 -105.41099 37820 ft 475 kts 204°
2026-04-24 19:47 49.83907 -105.45151 37825 ft 476 kts 204°
2026-04-24 19:48 49.77884 -105.49156 37836 ft 472 kts 204°
2026-04-24 19:48 49.68797 -105.55161 37839 ft 475 kts 205°
2026-04-24 19:49 49.56604 -105.63227 37835 ft 474 kts 204°
2026-04-24 19:50 49.44501 -105.71166 37838 ft 473 kts 204°
2026-04-24 19:51 49.35375 -105.77109 37841 ft 473 kts 204°
2026-04-24 19:52 49.26259 -105.83029 37857 ft 475 kts 204°
2026-04-24 19:52 49.20170 -105.86985 37857 ft 476 kts 204°
2026-04-24 19:53 49.14108 -105.90915 37855 ft 476 kts 204°
2026-04-24 19:54 49.04962 -105.96805 37865 ft 474 kts 204°
2026-04-24 19:54 48.98927 -106.00812 37872 ft 471 kts 209°
2026-04-24 19:55 48.94116 -106.04727 37879 ft 473 kts 209°
2026-04-24 19:55 48.87299 -106.10269 37890 ft 475 kts 210°
2026-04-24 19:56 48.81453 -106.14990 37894 ft 475 kts 209°
2026-04-24 19:56 48.75672 -106.19621 37893 ft 471 kts 209°
2026-04-24 19:57 48.69868 -106.24275 37913 ft 472 kts 210°
2026-04-24 19:57 48.64060 -106.28924 37906 ft 471 kts 209°
2026-04-24 19:58 48.58230 -106.33582 37919 ft 476 kts 210°
2026-04-24 19:58 48.52380 -106.38224 37924 ft 473 kts 209°
2026-04-24 19:59 48.46548 -106.42831 37904 ft 474 kts 210°
2026-04-24 19:59 48.40701 -106.47459 37892 ft 473 kts 210°
2026-04-24 20:00 48.34875 -106.52055 37868 ft 473 kts 210°
2026-04-24 20:00 48.29103 -106.56611 37851 ft 472 kts 210°
2026-04-24 20:01 48.23255 -106.61183 37860 ft 473 kts 210°
2026-04-24 20:01 48.17473 -106.65906 37849 ft 473 kts 212°
2026-04-24 20:02 48.12773 -106.70095 37866 ft 473 kts 212°
2026-04-24 20:02 48.06145 -106.75950 37893 ft 472 kts 213°
2026-04-24 20:03 48.00531 -106.80825 37926 ft 468 kts 212°
2026-04-24 20:03 47.94880 -106.85726 37959 ft 469 kts 213°
2026-04-24 20:04 47.89228 -106.90613 37985 ft 470 kts 212°
2026-04-24 20:04 47.83591 -106.95468 37987 ft 470 kts 212°
2026-04-24 20:05 47.77926 -107.00345 38118 ft 470 kts 212°
2026-04-24 20:05 47.75094 -107.02769 38301 ft 468 kts 212°
2026-04-24 20:05 47.72274 -107.05184 38486 ft 467 kts 212°
2026-04-24 20:06 47.66640 -107.10009 38703 ft 468 kts 212°
2026-04-24 20:06 47.60986 -107.14834 38921 ft 467 kts 212°
2026-04-24 20:07 47.56297 -107.18824 39094 ft 468 kts 211°
2026-04-24 20:07 47.49706 -107.24419 39281 ft 469 kts 212°
2026-04-24 20:07 47.46871 -107.26821 39384 ft 469 kts 212°
2026-04-24 20:08 47.44045 -107.29212 39492 ft 469 kts 212°
2026-04-24 20:08 47.41219 -107.31600 39599 ft 469 kts 211°
2026-04-24 20:08 47.38377 -107.33995 39644 ft 470 kts 212°
2026-04-24 20:09 47.32687 -107.38800 39796 ft 472 kts 212°
2026-04-24 20:09 47.29836 -107.41195 39955 ft 470 kts 212°
2026-04-24 20:09 47.26994 -107.43574 39991 ft 468 kts 211°
2026-04-24 20:10 47.21332 -107.48320 40009 ft 469 kts 212°
2026-04-24 20:10 47.15679 -107.53052 40009 ft 469 kts 211°
2026-04-24 20:11 47.09998 -107.57782 40022 ft 470 kts 212°
2026-04-24 20:11 47.04301 -107.62536 40013 ft 468 kts 212°
2026-04-24 20:12 46.98657 -107.67227 40016 ft 467 kts 212°
2026-04-24 20:12 46.93944 -107.71130 40017 ft 468 kts 212°
2026-04-24 20:13 46.87340 -107.76583 40021 ft 469 kts 212°
2026-04-24 20:13 46.81645 -107.81274 40029 ft 469 kts 212°
2026-04-24 20:14 46.75973 -107.85930 40033 ft 467 kts 212°
2026-04-24 20:14 46.70296 -107.90580 40030 ft 468 kts 212°
2026-04-24 20:15 46.65570 -107.94442 40025 ft 468 kts 212°
2026-04-24 20:15 46.58972 -107.99839 40031 ft 468 kts 212°
2026-04-24 20:16 46.54214 -108.03717 40016 ft 469 kts 212°
2026-04-24 20:16 46.48511 -108.08340 40027 ft 470 kts 212°
2026-04-24 20:17 46.42840 -108.12934 40020 ft 469 kts 213°
2026-04-24 20:17 46.34286 -108.19844 40022 ft 469 kts 212°
2026-04-24 20:18 46.28590 -108.24429 40019 ft 468 kts 212°
2026-04-24 20:18 46.22874 -108.29030 40017 ft 470 kts 213°
2026-04-24 20:19 46.17165 -108.33614 40013 ft 470 kts 212°
2026-04-24 20:19 46.11489 -108.38139 40008 ft 469 kts 212°
2026-04-24 20:20 46.05776 -108.42695 39996 ft 468 kts 212°
2026-04-24 20:20 46.00061 -108.47247 39987 ft 468 kts 212°
2026-04-24 20:21 45.94353 -108.51773 39978 ft 469 kts 212°
2026-04-24 20:21 45.88662 -108.56284 39969 ft 469 kts 212°
2026-04-24 20:22 45.82949 -108.60810 39972 ft 469 kts 212°
2026-04-24 20:22 45.77213 -108.65337 39971 ft 470 kts 212°
2026-04-24 20:23 45.71464 -108.69851 39978 ft 470 kts 212°
2026-04-24 20:23 45.65720 -108.74358 40017 ft 472 kts 211°
2026-04-24 20:24 45.59991 -108.78843 40006 ft 471 kts 211°
2026-04-24 20:24 45.54234 -108.83339 40020 ft 471 kts 211°
2026-04-24 20:25 45.48473 -108.87826 40010 ft 471 kts 211°
2026-04-24 20:25 45.42747 -108.92276 40021 ft 471 kts 211°
2026-04-24 20:26 45.36993 -108.96737 40017 ft 471 kts 211°
2026-04-24 20:26 45.31236 -109.01191 40029 ft 471 kts 211°
2026-04-24 20:27 45.25481 -109.05633 40038 ft 471 kts 211°
2026-04-24 20:27 45.19704 -109.10081 40036 ft 471 kts 211°
2026-04-24 20:28 45.13943 -109.14507 40047 ft 471 kts 211°
2026-04-24 20:28 45.08176 -109.18927 40059 ft 471 kts 211°
2026-04-24 20:29 45.02444 -109.23310 40052 ft 471 kts 211°
2026-04-24 20:29 44.96674 -109.27711 40055 ft 471 kts 211°
2026-04-24 20:30 44.90904 -109.32103 40052 ft 471 kts 211°
2026-04-24 20:30 44.85138 -109.36482 40042 ft 471 kts 211°
2026-04-24 20:31 44.79392 -109.40836 40046 ft 471 kts 211°
2026-04-24 20:31 44.73609 -109.45209 40026 ft 471 kts 211°
2026-04-24 20:32 44.67822 -109.49574 40041 ft 472 kts 211°
2026-04-24 20:32 44.62031 -109.53932 40018 ft 472 kts 211°
2026-04-24 20:33 44.56247 -109.58274 40005 ft 472 kts 211°
2026-04-24 20:33 44.50459 -109.62610 40001 ft 471 kts 211°
2026-04-24 20:34 44.44702 -109.66914 40005 ft 471 kts 211°
2026-04-24 20:34 44.38946 -109.71205 39991 ft 468 kts 211°
2026-04-24 20:35 44.33187 -109.75490 39982 ft 469 kts 211°
2026-04-24 20:35 44.27414 -109.79775 39977 ft 469 kts 211°
2026-04-24 20:36 44.21633 -109.84056 39963 ft 470 kts 211°
2026-04-24 20:36 44.15930 -109.88270 39977 ft 466 kts 211°
2026-04-24 20:37 44.10187 -109.92506 39975 ft 467 kts 211°
2026-04-24 20:37 44.04440 -109.96735 39972 ft 467 kts 211°
2026-04-24 20:38 43.98652 -110.00918 39954 ft 469 kts 208°
2026-04-24 20:38 43.92790 -110.04779 39963 ft 466 kts 209°
2026-04-24 20:39 43.86972 -110.08639 39956 ft 466 kts 209°
2026-04-24 20:39 43.81124 -110.12514 39941 ft 466 kts 209°
2026-04-24 20:40 43.75272 -110.16382 39920 ft 465 kts 209°
2026-04-24 20:40 43.69418 -110.20239 39934 ft 467 kts 209°
2026-04-24 20:41 43.63535 -110.24105 39928 ft 468 kts 208°
2026-04-24 20:41 43.57650 -110.27964 39932 ft 466 kts 208°
2026-04-24 20:42 43.51797 -110.31794 39923 ft 463 kts 209°
2026-04-24 20:42 43.46006 -110.35578 39918 ft 464 kts 208°
2026-04-24 20:43 43.40155 -110.39392 39942 ft 465 kts 208°
2026-04-24 20:43 43.34315 -110.43192 39931 ft 464 kts 208°
2026-04-24 20:44 43.28480 -110.46976 39935 ft 462 kts 209°
2026-04-24 20:44 43.22665 -110.50742 39928 ft 462 kts 209°
2026-04-24 20:45 43.16859 -110.54494 39918 ft 460 kts 208°
2026-04-24 20:45 43.11101 -110.58205 39926 ft 460 kts 209°
2026-04-24 20:46 43.05313 -110.61930 39932 ft 459 kts 209°
2026-04-24 20:46 42.99527 -110.65647 39929 ft 459 kts 209°
2026-04-24 20:47 42.93738 -110.69357 39925 ft 459 kts 209°
2026-04-24 20:47 42.87949 -110.73059 39927 ft 459 kts 209°
2026-04-24 20:48 42.82159 -110.76752 39929 ft 459 kts 208°
2026-04-24 20:48 42.76370 -110.80439 39925 ft 460 kts 209°
2026-04-24 20:49 42.70592 -110.84114 39946 ft 463 kts 208°
2026-04-24 20:49 42.64740 -110.87822 39943 ft 462 kts 209°
2026-04-24 20:50 42.58913 -110.91509 39941 ft 462 kts 209°
2026-04-24 20:50 42.53084 -110.95190 39934 ft 463 kts 209°
2026-04-24 20:51 42.47248 -110.98868 39918 ft 461 kts 209°
2026-04-24 20:51 42.41439 -111.02517 39916 ft 458 kts 209°
2026-04-24 20:52 42.35647 -111.06155 39886 ft 459 kts 209°
2026-04-24 20:52 42.29851 -111.09786 39871 ft 459 kts 209°
2026-04-24 20:53 42.24087 -111.13390 39872 ft 459 kts 209°
2026-04-24 20:53 42.18299 -111.16998 39862 ft 457 kts 209°
2026-04-24 20:54 42.12512 -111.20602 39854 ft 458 kts 209°
2026-04-24 20:54 42.06730 -111.24194 39855 ft 458 kts 209°
2026-04-24 20:55 42.00935 -111.27786 39834 ft 457 kts 209°
2026-04-24 20:55 41.95183 -111.31343 39855 ft 459 kts 210°
2026-04-24 20:56 41.89373 -111.34931 39869 ft 459 kts 210°
2026-04-24 20:56 41.83553 -111.38516 39857 ft 460 kts 209°
2026-04-24 20:57 41.77742 -111.42088 39846 ft 457 kts 210°
2026-04-24 20:57 41.71964 -111.45634 39855 ft 457 kts 210°
2026-04-24 20:58 41.66214 -111.49159 39856 ft 456 kts 210°
2026-04-24 20:58 41.60438 -111.52692 39850 ft 456 kts 210°
2026-04-24 20:59 41.54663 -111.56217 39850 ft 455 kts 210°
2026-04-24 20:59 41.48903 -111.59724 39853 ft 454 kts 210°
2026-04-24 21:00 41.43157 -111.63216 39848 ft 454 kts 210°
2026-04-24 21:00 41.37437 -111.66688 39851 ft 454 kts 210°
2026-04-24 21:01 41.31685 -111.70170 39848 ft 453 kts 210°
2026-04-24 21:01 41.25950 -111.73637 39862 ft 452 kts 210°
2026-04-24 21:02 41.20211 -111.77101 39892 ft 453 kts 210°
2026-04-24 21:02 41.15445 -111.79965 39904 ft 453 kts 210°
2026-04-24 21:03 41.09700 -111.83418 39885 ft 453 kts 211°
2026-04-24 21:03 41.03955 -111.86859 39906 ft 451 kts 211°
2026-04-24 21:04 40.98246 -111.90284 39893 ft 450 kts 210°
2026-04-24 21:04 40.92523 -111.93709 39870 ft 451 kts 210°
2026-04-24 21:05 40.86841 -111.97101 39861 ft 451 kts 211°
2026-04-24 21:05 40.81056 -112.00328 39878 ft 452 kts 208°
2026-04-24 21:06 40.75229 -112.03494 39888 ft 452 kts 209°
2026-04-24 21:06 40.69409 -112.06661 39881 ft 452 kts 208°
2026-04-24 21:07 40.63584 -112.09820 39882 ft 452 kts 208°
2026-04-24 21:07 40.57758 -112.12970 39873 ft 452 kts 208°
2026-04-24 21:08 40.51980 -112.16081 39855 ft 449 kts 209°
2026-04-24 21:08 40.46189 -112.19205 39868 ft 451 kts 209°
2026-04-24 21:09 40.40379 -112.22325 39862 ft 450 kts 209°
2026-04-24 21:09 40.34579 -112.25438 39844 ft 451 kts 208°
2026-04-24 21:10 40.28771 -112.28552 39817 ft 450 kts 208°
2026-04-24 21:10 40.22963 -112.31657 39802 ft 450 kts 208°
2026-04-24 21:11 40.17197 -112.34732 39807 ft 449 kts 208°
2026-04-24 21:11 40.11393 -112.37823 39801 ft 449 kts 208°
2026-04-24 21:12 40.05603 -112.40902 39800 ft 449 kts 208°
2026-04-24 21:12 39.99815 -112.43973 39796 ft 449 kts 208°
2026-04-24 21:13 39.94030 -112.47035 39782 ft 445 kts 208°
2026-04-24 21:13 39.88325 -112.50045 39789 ft 443 kts 208°
2026-04-24 21:14 39.82615 -112.53064 39784 ft 443 kts 208°
2026-04-24 21:14 39.76932 -112.56059 39785 ft 443 kts 208°
2026-04-24 21:15 39.71207 -112.59067 39773 ft 443 kts 208°
2026-04-24 21:15 39.65501 -112.62061 39794 ft 441 kts 209°
2026-04-24 21:16 39.59811 -112.65043 39802 ft 440 kts 208°
2026-04-24 21:16 39.54130 -112.68015 39808 ft 439 kts 208°
2026-04-24 21:17 39.48500 -112.70954 39783 ft 439 kts 208°
2026-04-24 21:17 39.42831 -112.73908 39810 ft 438 kts 208°
2026-04-24 21:18 39.37166 -112.76855 39737 ft 439 kts 208°
2026-04-24 21:18 39.31502 -112.79796 39730 ft 439 kts 208°
2026-04-24 21:19 39.25832 -112.82736 39727 ft 439 kts 208°
2026-04-24 21:19 39.20163 -112.85669 39733 ft 439 kts 208°
2026-04-24 21:20 39.11675 -112.90053 39741 ft 441 kts 208°
2026-04-24 21:21 39.05974 -112.92990 39741 ft 441 kts 208°
2026-04-24 21:21 39.00268 -112.95923 39738 ft 440 kts 208°
2026-04-24 21:22 38.94619 -112.98823 39739 ft 440 kts 208°
2026-04-24 21:22 38.88959 -113.01727 39750 ft 440 kts 208°
2026-04-24 21:23 38.83264 -113.04641 39748 ft 440 kts 208°
2026-04-24 21:23 38.77571 -113.07547 39729 ft 440 kts 208°
2026-04-24 21:24 38.71885 -113.10445 39755 ft 439 kts 208°
2026-04-24 21:24 38.66205 -113.13336 39804 ft 438 kts 208°
2026-04-24 21:25 38.60537 -113.16215 39827 ft 439 kts 208°
2026-04-24 21:25 38.54896 -113.19078 39848 ft 439 kts 208°
2026-04-24 21:26 38.49234 -113.21945 39847 ft 436 kts 208°
2026-04-24 21:26 38.43578 -113.24805 39841 ft 437 kts 208°
2026-04-24 21:27 38.37921 -113.27661 39828 ft 437 kts 208°
2026-04-24 21:27 38.32260 -113.30512 39815 ft 437 kts 208°
2026-04-24 21:28 38.26597 -113.33363 39800 ft 437 kts 208°
2026-04-24 21:28 38.20964 -113.36191 39779 ft 438 kts 208°
2026-04-24 21:29 38.15303 -113.39028 39778 ft 437 kts 208°
2026-04-24 21:29 38.09638 -113.41863 39780 ft 437 kts 208°
2026-04-24 21:30 38.03977 -113.44691 39768 ft 436 kts 208°
2026-04-24 21:30 37.98332 -113.47508 39774 ft 436 kts 208°
2026-04-24 21:31 37.92617 -113.50032 39789 ft 441 kts 202°
2026-04-24 21:31 37.86524 -113.51683 39795 ft 447 kts 198°
2026-04-24 21:32 37.80444 -113.53115 39797 ft 445 kts 198°
2026-04-24 21:32 37.74344 -113.54581 39871 ft 446 kts 198°
2026-04-24 21:32 37.71289 -113.55318 39991 ft 446 kts 198°
2026-04-24 21:33 37.68232 -113.56054 40103 ft 446 kts 198°
2026-04-24 21:33 37.62126 -113.57522 40311 ft 447 kts 198°
2026-04-24 21:34 37.56049 -113.58978 40554 ft 446 kts 199°
2026-04-24 21:34 37.52995 -113.59710 40657 ft 446 kts 199°
2026-04-24 21:34 37.49938 -113.60442 40749 ft 447 kts 199°
2026-04-24 21:35 37.43829 -113.61904 40822 ft 447 kts 199°
2026-04-24 21:35 37.37727 -113.63361 40821 ft 446 kts 199°
2026-04-24 21:36 37.31616 -113.64816 40820 ft 446 kts 199°
2026-04-24 21:36 37.25553 -113.66259 40839 ft 445 kts 199°
2026-04-24 21:37 37.19460 -113.67709 40836 ft 446 kts 199°
2026-04-24 21:37 37.13338 -113.69157 40861 ft 449 kts 199°
2026-04-24 21:38 37.07232 -113.70623 40855 ft 443 kts 200°
2026-04-24 21:38 37.01405 -113.72767 40854 ft 436 kts 208°
2026-04-24 21:39 36.95780 -113.75537 40845 ft 434 kts 209°
2026-04-24 21:39 36.90147 -113.78285 40827 ft 433 kts 208°
2026-04-24 21:40 36.84511 -113.81013 40801 ft 435 kts 208°
2026-04-24 21:40 36.78872 -113.83724 40813 ft 434 kts 208°
2026-04-24 21:41 36.73259 -113.86438 40810 ft 432 kts 208°
2026-04-24 21:41 36.67682 -113.89133 40802 ft 432 kts 208°
2026-04-24 21:42 36.62109 -113.91941 40777 ft 430 kts 211°
2026-04-24 21:42 36.56672 -113.95022 40804 ft 429 kts 212°
2026-04-24 21:43 36.51221 -113.98077 40801 ft 430 kts 211°
2026-04-24 21:43 36.45751 -114.01096 40786 ft 430 kts 211°
2026-04-24 21:44 36.40393 -114.04238 40779 ft 426 kts 216°
2026-04-24 21:44 36.35371 -114.08026 40785 ft 421 kts 219°
2026-04-24 21:45 36.30394 -114.11874 40773 ft 420 kts 218°
2026-04-24 21:45 36.25415 -114.15698 40760 ft 421 kts 218°
2026-04-24 21:46 36.20431 -114.19509 40762 ft 421 kts 219°
2026-04-24 21:46 36.15443 -114.23328 40764 ft 421 kts 218°
2026-04-24 21:47 36.10571 -114.27314 40747 ft 417 kts 223°
2026-04-24 21:47 36.06239 -114.31906 40747 ft 409 kts 230°
2026-04-24 21:48 36.02397 -114.37073 40759 ft 408 kts 234°
2026-04-24 21:48 35.98637 -114.42331 40741 ft 410 kts 233°
2026-04-24 21:49 35.94823 -114.47614 40751 ft 412 kts 233°
2026-04-24 21:49 35.91000 -114.52888 40759 ft 412 kts 233°
2026-04-24 21:50 35.87184 -114.58147 40770 ft 412 kts 233°
2026-04-24 21:50 35.84002 -114.62526 40740 ft 412 kts 233°
2026-04-24 21:51 35.80171 -114.67788 40781 ft 412 kts 233°
2026-04-24 21:51 35.76774 -114.72450 40782 ft 413 kts 233°
2026-04-24 21:52 35.72940 -114.77695 40813 ft 410 kts 232°
2026-04-24 21:52 35.69140 -114.82891 40814 ft 412 kts 233°
2026-04-24 21:53 35.65298 -114.88142 40820 ft 412 kts 233°
2026-04-24 21:53 35.61459 -114.93398 40818 ft 413 kts 233°
2026-04-24 21:54 35.57615 -114.98652 40820 ft 413 kts 233°
2026-04-24 21:54 35.53772 -115.03896 40825 ft 412 kts 233°
2026-04-24 21:55 35.49974 -115.09062 40826 ft 409 kts 232°
2026-04-24 21:55 35.46069 -115.14180 40830 ft 411 kts 231°
2026-04-24 21:56 35.42143 -115.19272 40848 ft 411 kts 232°
2026-04-24 21:56 35.38225 -115.24373 40845 ft 411 kts 232°
2026-04-24 21:57 35.34310 -115.29473 40861 ft 410 kts 232°
2026-04-24 21:57 35.30395 -115.34563 40858 ft 410 kts 232°
2026-04-24 21:58 35.26509 -115.39608 40873 ft 410 kts 232°
2026-04-24 21:58 35.22591 -115.44688 40871 ft 410 kts 232°
2026-04-24 21:59 35.18672 -115.49760 40866 ft 410 kts 232°
2026-04-24 21:59 35.14752 -115.54827 40873 ft 410 kts 232°
2026-04-24 22:00 35.10831 -115.59881 40870 ft 409 kts 232°
2026-04-24 22:00 35.06899 -115.64910 40873 ft 409 kts 232°
2026-04-24 22:01 35.02990 -115.69900 40868 ft 409 kts 232°
2026-04-24 22:01 34.99060 -115.74913 40867 ft 409 kts 232°
2026-04-24 22:02 34.95121 -115.79931 40858 ft 409 kts 232°
2026-04-24 22:02 34.91186 -115.84939 40851 ft 409 kts 232°
2026-04-24 22:03 34.87245 -115.89948 40840 ft 409 kts 232°
2026-04-24 22:03 34.83303 -115.94949 40841 ft 409 kts 232°
2026-04-24 22:04 34.79350 -115.99957 40833 ft 411 kts 232°
2026-04-24 22:04 34.75394 -116.04967 40823 ft 410 kts 232°
2026-04-24 22:05 34.71480 -116.09966 40821 ft 410 kts 232°
2026-04-24 22:05 34.67547 -116.14976 40820 ft 410 kts 232°
2026-04-24 22:06 34.63598 -116.19994 40821 ft 410 kts 232°
2026-04-24 22:06 34.59652 -116.25000 40746 ft 411 kts 232°
2026-04-24 22:06 34.57675 -116.27505 40490 ft 410 kts 232°
2026-04-24 22:07 34.55703 -116.30000 40246 ft 408 kts 232°
2026-04-24 22:07 34.53741 -116.32483 40014 ft 407 kts 232°
2026-04-24 22:07 34.51782 -116.34960 39614 ft 407 kts 233°
2026-04-24 22:07 34.49835 -116.37423 38867 ft 410 kts 233°
2026-04-24 22:08 34.47845 -116.39940 37786 ft 414 kts 233°
2026-04-24 22:08 34.45859 -116.42448 36759 ft 411 kts 232°
2026-04-24 22:08 34.43903 -116.44959 35809 ft 405 kts 234°
2026-04-24 22:08 34.42150 -116.47595 34795 ft 400 kts 238°
2026-04-24 22:09 34.40635 -116.50389 33843 ft 394 kts 242°
2026-04-24 22:09 34.39349 -116.53303 32606 ft 396 kts 246°
2026-04-24 22:09 34.38149 -116.56291 31527 ft 395 kts 246°
2026-04-24 22:09 34.36921 -116.59300 30471 ft 398 kts 246°
2026-04-24 22:10 34.35689 -116.62292 29732 ft 395 kts 246°
2026-04-24 22:10 34.34476 -116.65224 29463 ft 381 kts 246°
2026-04-24 22:10 34.33309 -116.68040 29127 ft 369 kts 246°
2026-04-24 22:10 34.32186 -116.70793 28724 ft 360 kts 247°
2026-04-24 22:11 34.31106 -116.73489 28426 ft 354 kts 247°
2026-04-24 22:11 34.30034 -116.76175 28126 ft 356 kts 247°
2026-04-24 22:11 34.28955 -116.78873 27580 ft 356 kts 247°
2026-04-24 22:11 34.27878 -116.81555 27039 ft 353 kts 247°
2026-04-24 22:12 34.26811 -116.84202 26516 ft 347 kts 247°
2026-04-24 22:12 34.25770 -116.86780 25996 ft 344 kts 248°
2026-04-24 22:12 34.24719 -116.89379 25497 ft 344 kts 248°
2026-04-24 22:12 34.23669 -116.91979 24979 ft 344 kts 248°
2026-04-24 22:13 34.22620 -116.94572 24435 ft 340 kts 248°
2026-04-24 22:13 34.21587 -116.97122 23946 ft 335 kts 248°
2026-04-24 22:13 34.20703 -116.99721 23432 ft 333 kts 254°
2026-04-24 22:13 34.20003 -117.02372 22869 ft 328 kts 255°
2026-04-24 22:14 34.19315 -117.04979 22504 ft 326 kts 255°
2026-04-24 22:14 34.18613 -117.07601 21829 ft 331 kts 254°
2026-04-24 22:14 34.17907 -117.10193 21423 ft 326 kts 254°
2026-04-24 22:14 34.17197 -117.12786 20944 ft 322 kts 254°
2026-04-24 22:15 34.16507 -117.15330 20468 ft 316 kts 253°
2026-04-24 22:15 34.15826 -117.17833 19985 ft 311 kts 253°
2026-04-24 22:15 34.15148 -117.20307 19564 ft 310 kts 253°
2026-04-24 22:15 34.14463 -117.22787 19103 ft 312 kts 253°
2026-04-24 22:16 34.13778 -117.25268 18640 ft 310 kts 252°
2026-04-24 22:16 34.13098 -117.27731 18180 ft 309 kts 252°
2026-04-24 22:16 34.12420 -117.30192 17692 ft 308 kts 252°
2026-04-24 22:16 34.11752 -117.32611 17230 ft 307 kts 252°
2026-04-24 22:17 34.11076 -117.35055 16764 ft 306 kts 252°
2026-04-24 22:17 34.10402 -117.37494 16300 ft 305 kts 252°
2026-04-24 22:17 34.09764 -117.39935 15837 ft 304 kts 253°
2026-04-24 22:17 34.09160 -117.42383 15365 ft 304 kts 254°
2026-04-24 22:18 34.08563 -117.44830 14923 ft 303 kts 253°
2026-04-24 22:18 34.07962 -117.47269 14462 ft 303 kts 253°
2026-04-24 22:18 34.07359 -117.49698 13999 ft 303 kts 253°
2026-04-24 22:18 34.06757 -117.52091 13566 ft 301 kts 253°
2026-04-24 22:19 34.06141 -117.54505 13139 ft 301 kts 253°
2026-04-24 22:19 34.05522 -117.56915 12704 ft 301 kts 253°
2026-04-24 22:19 34.04902 -117.59328 12278 ft 300 kts 253°
2026-04-24 22:19 34.04287 -117.61731 11855 ft 299 kts 253°
2026-04-24 22:20 34.03673 -117.64129 11436 ft 299 kts 253°
2026-04-24 22:20 34.03060 -117.66523 11013 ft 299 kts 253°
2026-04-24 22:20 34.02448 -117.68915 10583 ft 297 kts 253°
2026-04-24 22:20 34.02027 -117.71344 10182 ft 296 kts 262°
2026-04-24 22:21 34.01820 -117.73733 10022 ft 281 kts 263°
2026-04-24 22:21 34.01612 -117.76023 9623 ft 271 kts 263°
2026-04-24 22:21 34.01399 -117.78249 9323 ft 260 kts 263°
2026-04-24 22:21 34.01186 -117.80447 9252 ft 266 kts 262°
2026-04-24 22:22 34.00968 -117.82661 8954 ft 266 kts 262°
2026-04-24 22:22 34.00751 -117.84864 8498 ft 263 kts 263°
2026-04-24 22:22 34.00532 -117.87065 7771 ft 268 kts 263°
2026-04-24 22:22 34.00319 -117.89223 7655 ft 253 kts 263°
2026-04-24 22:23 34.00098 -117.91442 7555 ft 272 kts 263°
2026-04-24 22:23 33.99881 -117.93669 7414 ft 268 kts 263°
2026-04-24 22:23 33.99668 -117.95859 7087 ft 260 kts 263°
2026-04-24 22:23 33.99457 -117.98018 6721 ft 254 kts 263°
2026-04-24 22:24 33.99239 -118.00210 6615 ft 264 kts 263°
2026-04-24 22:24 33.99026 -118.02369 6250 ft 258 kts 263°
2026-04-24 22:24 33.98811 -118.04476 5854 ft 249 kts 263°
2026-04-24 22:24 33.98606 -118.06550 5355 ft 247 kts 263°
2026-04-24 22:25 33.98403 -118.08634 4954 ft 251 kts 263°
2026-04-24 22:25 33.98194 -118.10701 4611 ft 246 kts 262°
2026-04-24 22:25 33.97984 -118.12716 4337 ft 237 kts 262°
2026-04-24 22:25 33.97831 -118.14651 4106 ft 226 kts 263°
2026-04-24 22:26 33.97641 -118.16526 3888 ft 226 kts 262°
2026-04-24 22:26 33.97454 -118.18364 3612 ft 221 kts 262°
2026-04-24 22:26 33.97267 -118.20169 3355 ft 214 kts 262°
2026-04-24 22:26 33.97091 -118.21923 3066 ft 207 kts 261°
2026-04-24 22:27 33.96914 -118.23586 2784 ft 194 kts 261°
2026-04-24 22:27 33.96761 -118.25145 2529 ft 182 kts 260°
2026-04-24 22:27 33.96605 -118.26616 2313 ft 177 kts 259°
2026-04-24 22:27 33.96446 -118.28142 2092 ft 182 kts 261°
2026-04-24 22:28 33.96302 -118.29607 1840 ft 167 kts 258°
2026-04-24 22:28 33.96170 -118.30900 1629 ft 144 kts 258°
2026-04-24 22:28 33.96052 -118.32043 1440 ft 136 kts 256°
2026-04-24 22:28 33.95936 -118.33158 1251 ft 134 kts 257°
2026-04-24 22:29 33.95722 -118.35456 961 ft 138 kts 257°
2026-04-24 22:29 33.95580 -118.36633 766 ft 150 kts 258°
2026-04-24 22:29 33.95464 -118.37831 555 ft 138 kts 259°
2026-04-24 22:30 33.95337 -118.38967 360 ft 133 kts 259°
2026-04-24 22:30 33.95230 -118.40016 167 ft 128 kts 258°
2026-04-24 22:30 33.95115 -118.41083 102 ft 115 kts 262°
2026-04-24 22:30 33.95056 -118.41703 101 ft 46 kts 262°
2026-04-24 22:31 33.95021 -118.42002 100 ft 28 kts 257°
2026-04-24 22:31 33.94950 -118.42181 103 ft 14 kts 230°
2026-04-24 22:31 33.94909 -118.42232 104 ft 8 kts 224°
2026-04-24 22:31 33.94867 -118.42268 103 ft 7 kts 208°
2026-04-24 22:32 33.94821 -118.42281 103 ft 7 kts 191°
2026-04-24 22:32 33.94757 -118.42280 102 ft 12 kts 175°
2026-04-24 22:32 33.94687 -118.42242 103 ft 12 kts 121°
2026-04-24 22:32 33.94693 -118.42135 100 ft 14 kts 82°
2026-04-24 22:33 33.94706 -118.42006 99 ft 17 kts 83°
2026-04-24 22:33 33.94720 -118.41862 100 ft 15 kts 83°
2026-04-24 22:33 33.94732 -118.41743 101 ft 12 kts 83°
2026-04-24 22:33 33.94744 -118.41628 99 ft 15 kts 83°
2026-04-24 22:34 33.94757 -118.41495 101 ft 17 kts 83°
2026-04-24 22:34 33.94780 -118.41381 102 ft 13 kts 72°
2026-04-24 22:34 33.94756 -118.41298 101 ft 12 kts 152°
2026-04-24 22:34 33.94666 -118.41279 100 ft 14 kts 173°
2026-04-24 22:35 33.94563 -118.41265 100 ft 16 kts 173°
2026-04-24 22:35 33.94451 -118.41248 100 ft 17 kts 173°
2026-04-24 22:35 33.94340 -118.41231 99 ft 15 kts 173°
2026-04-24 22:35 33.94244 -118.41216 100 ft 13 kts 172°
2026-04-24 22:36 33.94178 -118.41194 102 ft 8 kts 138°
2026-04-24 22:36 33.94174 -118.41133 102 ft 4 kts 88°
2026-04-24 22:36 33.94176 -118.41103 99 ft 1 kts 83°
2026-04-24 22:36 33.94177 -118.41094 100 ft 1 kts 83°
2026-04-24 22:37 33.94178 -118.41087 99 ft 0 kts 83°